Palacios, TX

8:27 AM CST on December 03, 2016 (GMT -0600)
Palacios Municipal

Weather History for KPSX - September, 2014

Change the Weather History Date:

Thursday, September 11, 2014

  Actual Average Record
Temperature  
Mean Temperature 86 °F -  
Max Temperature 93 °F 87 °F 96 °F (1944)
Min Temperature 82 °F 72 °F 62 °F (1943)
Cooling Degree Days 22    
Growing Degree Days 36 (Base 50)    
Moisture  
Dew Point 76 °F    
Average Humidity 72    
Maximum Humidity 85    
Minimum Humidity 55    
Precipitation  
Precipitation 0.00 in - - ()
Sea Level Pressure  
Sea Level Pressure 29.91 in    
Wind  
Wind Speed 11 mph (SSE)    
Max Wind Speed 17 mph    
Max Gust Speed 23 mph    
Visibility 10 miles    
Events      
Averages and records for this station are not official NWS values.
T = Trace of Precipitation, MM = Missing Value Source: NWS Daily Summary

Daily Weather History Graph

Daily Weather History Graph

Search for Another Location

Airport or City:

Trip Planner

Search our weather history database for the weather conditions in past years. The results will help you decide how hot, cold, wet, or windy it might be!

Date:

Astronomy

Sep. 11, 2014 Rise Set
Actual Time 7:08 AM CDT 7:34 PM CDT
Civil Twilight 6:44 AM CDT 7:58 PM CDT
Nautical Twilight 6:16 AM CDT 8:26 PM CDT
Astronomical Twilight 5:48 AM CDT 8:54 PM CDT
Moon 9:32 PM CDT (9/11) 9:49 AM CDT (9/11)
Length of Visible Light 13h 14m
Length of Day
12h 26m
Waning Gibbous, 90% of the Moon is Illuminated
Sep 11
Waning Gibbous
Sep 15
Last Quarter
Sep 24
New
Oct 1
First Quarter
Oct 8
Full

Hourly Weather History & Observations

Time (CDT) Temp. Heat Index Dew Point Humidity Pressure Visibility Wind Dir Wind Speed Gust Speed Precip Events Conditions
12:53 AM 84.0 °F 93.7 °F 77.0 °F 79% 29.89 in 10.0 mi SSE 12.7 mph - N/A   Clear
1:53 AM 84.0 °F 92.6 °F 75.9 °F 76% 29.89 in 10.0 mi South 15.0 mph - N/A   Clear
2:53 AM 82.9 °F 91.8 °F 77.0 °F 82% 29.90 in 10.0 mi SSE 10.4 mph - N/A   Clear
3:53 AM 84.0 °F 93.7 °F 77.0 °F 79% 29.88 in 10.0 mi South 10.4 mph - N/A   Partly Cloudy
4:53 AM 82.9 °F 90.8 °F 75.9 °F 79% 29.88 in 10.0 mi South 8.1 mph - N/A   Partly Cloudy
5:53 AM 82.9 °F 90.2 °F 75.0 °F 77% 29.90 in 10.0 mi South 9.2 mph - N/A   Partly Cloudy
6:53 AM 82.9 °F 90.2 °F 75.0 °F 77% 29.91 in 10.0 mi South 8.1 mph - N/A   Partly Cloudy
7:53 AM 84.0 °F 92.6 °F 75.9 °F 76% 29.92 in 10.0 mi South 6.9 mph - N/A   Clear
8:53 AM 84.9 °F 94.1 °F 75.9 °F 74% 29.93 in 10.0 mi South 6.9 mph - N/A   Clear
9:53 AM 86.0 °F 96.9 °F 77.0 °F 74% 29.94 in 10.0 mi South 11.5 mph - N/A   Scattered Clouds
10:53 AM 88.0 °F 100.2 °F 77.0 °F 70% 29.95 in 10.0 mi South 8.1 mph - N/A   Partly Cloudy
11:53 AM 90.0 °F 100.2 °F 75.0 °F 61% 29.95 in 10.0 mi SSW 6.9 mph - N/A   Clear
12:53 PM 91.0 °F 102.9 °F 75.9 °F 61% 29.94 in 10.0 mi SSW 10.4 mph - N/A   Clear
1:53 PM 91.9 °F 101.3 °F 73.9 °F 55% 29.93 in 10.0 mi SSE 11.5 mph - N/A   Clear
2:53 PM 91.9 °F 103.2 °F 75.0 °F 58% 29.91 in 10.0 mi South 12.7 mph - N/A   Clear
3:53 PM 91.0 °F 102.9 °F 75.9 °F 61% 29.89 in 10.0 mi SSE 15.0 mph - N/A   Clear
4:53 PM 91.0 °F 99.3 °F 73.0 °F 55% 29.88 in 10.0 mi SSE 13.8 mph 23.0 mph N/A   Clear
5:53 PM 89.1 °F 98.0 °F 73.9 °F 61% 29.87 in 10.0 mi SSE 17.3 mph - N/A   Clear
6:53 PM 87.1 °F 96.3 °F 75.0 °F 67% 29.88 in 10.0 mi SE 13.8 mph - N/A   Clear
7:53 PM 84.0 °F 91.9 °F 75.0 °F 74% 29.91 in 10.0 mi SE 6.9 mph - N/A   Clear
8:53 PM 82.0 °F 88.6 °F 75.0 °F 79% 29.92 in 10.0 mi SE 6.9 mph - N/A   Clear
9:53 PM 82.9 °F 90.8 °F 75.9 °F 79% 29.94 in 10.0 mi SE 6.9 mph - N/A   Clear
10:53 PM 82.9 °F 91.8 °F 77.0 °F 82% 29.94 in 10.0 mi SE 9.2 mph - N/A   Clear
11:53 PM 82.0 °F 90.2 °F 77.0 °F 85% 29.95 in 10.0 mi SE 5.8 mph - N/A   Clear